Temperature
17 17 17 17 17 17 17 17 17 17 17 17 17 17 17 17 17 17 17 17 17 17 17 17 17 18 18 18 18 18 18 18 18 18 18 18 18 18 18 18 18 18 18
17 17 17 17 17 17 17 17 17 17 17 17 17 17 17 17 17 17 17 17 17 17 17 17 17 17 17 17 17 17 18 18 18 18 18 18 18 18 18 18 18 18 18
17 17 17 17 17 17 17 17 17 17 17 17 17 17 17 17 17 17 17 17 17 17 17 17 17 17 17 17 17 17 17 17 17 17 18 18 18 18 18 18 18 18 18
17 17 17 17 17 17 17 17 17 17 17 17 17 17 17 17 17 17 17 17 17 17 17 17 17 17 17 17 17 17 17 17 17 17 17 17 18 18 18 18 18 18 18
17 17 17 17 17 17 17 17 17 17 17 17 17 16 16 16 16 16 16 17 17 17 17 17 17 17 17 17 17 17 17 17 17 17 17 17 17 17 18 18 18 18 18
17 17 17 17 17 17 17 17 17 17 17 17 17 16 16 16 16 16 16 17 17 17 17 17 17 17 17 17 17 17 17 17 17 17 17 17 17 17 17 17 18 18 18
17 17 17 17 17 17 17 17 17 16 16 16 16 16 16 16 16 16 16 16 16 16 17 17 17 17 17 17 17 17 17 17 17 17 17 17 17 17 17 17 17 17 17
17 17 17 17 17 17 17 17 16 16 16 16 16 16 16 16 16 16 16 16 16 16 16 16 16 16 17 17 17 17 17 17 17 17 17 17 17 17 17 17 17 17 17
17 17 17 17 17 17 16 16 16 16 16 16 16 16 16 16 16 16 16 16 16 16 16 16 16 16 16 16 16 16 16 16 16 17 17 17 17 17 17 17 17 17 17
17 17 17 17 17 16 16 16 16 16 16 16 16 16 16 16 16 16 16 16 16 16 16 16 16 16 16 16 16 16 16 16 16 16 16 16 16 17 17 17 17 17 17
16 17 17 17 16 16 16 16 16 16 16 16 16 16 16 16 16 16 16 16 16 16 16 16 16 16 16 16 16 16 16 16 16 16 16 16 16 16 16 16 16 16 16
16 16 16 16 16 16 16 16 16 16 16 16 16 16 16 16 16 16 16 16 16 16 16 16 16 16 16 16 16 16 16 16 16 16 16 16 16 16 16 16 16 16 16
17 17 16 16 16 16 16 16 16 16 16 16 16 16 16 16 16 16 16 16 16 16 16 16 16 16 16 16 16 16 16 16 16 16 16 16 16 16 16 16 16 16 16
17 17 17 16 16 16 16 16 16 16 16 16 16 16 16 16 16 16 16 16 16 16 15 15 15 16 16 15 16 16 16 16 16 16 16 16 16 16 16 16 16 16 16
17 17 16 16 16 16 16 16 16 16 16 16 16 16 16 16 16 16 16 16 16 15 15 15 15 15 15 15 15 15 15 15 15 16 16 16 16 16 16 16 16 16 16
17 17 17 16 16 16 16 16 16 16 16 16 16 16 16 16 16 16 16 16 15 15 15 15 15 15 15 15 15 15 15 15 15 15 15 16 16 15 15 16 16 16 16
17 17 17 16 16 16 16 16 16 16 16 16 16 16 16 16 16 16 15 15 15 15 15 15 15 15 15 15 15 15 15 15 15 15 15 15 15 15 15 15 16 16 16
17 17 17 16 16 16 16 16 16 16 16 16 16 16 16 16 16 16 15 15 15 15 15 15 15 15 15 15 15 15 15 15 15 15 15 15 15 15 15 15 15 16 16
17 17 17 16 16 16 16 16 16 16 16 16 16 16 16 16 16 15 15 15 15 15 15 15 15 15 15 15 15 15 15 15 15 15 15 15 15 15 15 15 15 15 15
17 17 17 16 16 16 16 16 16 16 16 16 16 16 16 16 16 15 15 15 15 15 15 15 15 15 15 15 15 15 15 15 15 15 15 15 15 15 15 15 15 15 15
17 17 17 16 16 16 16 16 16 16 16 16 16 16 16 15 15 15 15 15 15 15 15 15 15 15 15 15 15 15 15 14 15 15 15 15 15 15 15 15 15 15 15
17 17 17 16 16 16 16 16 16 16 16 16 16 15 15 15 15 15 15 15 15 15 15 15 15 15 15 15 15 15 15 14 14 14 14 14 15 15 15 15 15 15 15
17 17 17 16 16 16 16 16 16 16 16 16 16 15 15 15 15 15 15 15 15 15 15 15 15 15 15 15 15 15 15 14 14 14 14 14 14 14 14 14 14 14 14
17 17 17 17 16 16 16 16 16 16 16 16 15 15 15 15 15 15 15 15 15 15 15 15 15 15 15 15 15 15 15 15 14 14 14 14 14 14 14 14 14 14 14
17 17 17 17 16 16 16 16 16 16 16 16 15 15 15 15 15 15 15 15 15 15 15 15 15 15 15 15 15 15 15 15 15 14 14 14 14 14 14 14 14 14 14
17 17 17 17 17 16 16 16 16 16 16 16 16 15 15 15 15 15 15 15 15 15 15 15 15 15 15 15 15 15 15 15 15 15 14 14 14 13 13 13 14 14 14
Wind_Speed
1 2 7 8 9 9 10 11 12 12 12 11 12 12 12 12 11 11 12 11 11 11 11 10 10 10 10 10 9 10 9 9 10 9 9 9 8 9 8 8 8 7 8
4 5 7 9 9 10 10 11 12 12 12 12 12 12 12 11 11 10 11 11 11 10 10 10 10 10 9 9 9 9 9 9 9 10 9 8 8 8 8 8 8 7 8
5 6 7 9 9 10 10 11 11 11 12 12 11 11 11 11 10 10 10 10 10 10 10 9 9 9 9 9 9 9 9 9 9 10 9 7 7 8 8 8 8 7 7
7 7 7 8 9 10 10 11 11 11 11 11 11 11 10 10 10 10 10 10 9 9 9 8 8 8 8 9 9 9 9 9 9 9 7 6 6 8 8 8 8 7 7
6 7 8 9 9 9 10 10 10 10 10 10 10 10 10 9 9 9 9 9 9 9 8 8 8 8 8 8 8 9 9 9 9 9 7 7 7 9 9 9 8 8 8
5 7 9 9 9 10 10 10 10 10 10 9 9 9 9 9 9 9 9 9 9 9 9 8 8 8 7 8 8 9 9 9 9 8 7 7 7 8 9 8 8 8 8
5 6 9 9 9 10 10 10 10 10 9 9 9 9 9 9 9 9 8 9 9 9 8 8 8 8 8 8 8 9 9 9 9 7 6 6 7 8 8 8 8 8 7
5 6 8 9 10 10 9 9 9 8 8 8 8 8 8 8 8 8 8 8 8 8 8 7 7 8 8 8 9 9 9 8 8 7 6 5 7 8 8 8 7 7 7
5 5 5 7 8 9 9 8 8 7 7 7 6 6 7 7 8 7 7 7 7 7 6 7 7 7 8 8 9 9 9 10 8 6 6 5 7 8 8 8 7 7 6
4 4 4 5 6 6 6 7 6 5 5 5 5 5 6 6 6 6 7 7 6 6 6 6 6 7 7 8 9 10 10 9 8 7 5 6 7 8 8 7 7 7 7
5 3 3 4 4 4 4 4 4 3 3 3 3 4 4 3 3 4 5 6 6 6 6 6 7 7 8 8 9 9 9 7 7 6 6 7 8 8 8 8 8 8 8
4 3 3 3 4 4 3 3 2 2 2 2 2 3 3 2 2 3 4 5 5 6 6 6 7 6 6 6 8 9 7 7 6 5 6 7 8 7 7 7 8 8 8
4 4 4 3 4 3 2 3 2 2 2 2 2 2 3 3 3 2 2 2 3 4 5 6 6 5 5 5 5 6 5 6 5 5 6 8 7 7 7 7 7 7 7
5 4 4 4 3 3 3 3 3 2 2 2 2 3 4 3 2 2 1 1 2 3 4 5 5 6 6 6 6 6 5 5 6 5 6 8 8 7 7 7 7 7 6
5 4 4 4 4 3 3 1 3 2 2 3 4 5 5 3 2 2 1 1 2 4 4 4 5 6 6 6 6 7 6 6 7 7 7 8 8 8 7 7 7 6 6
4 4 4 4 4 4 3 2 2 3 4 5 5 5 5 5 3 3 2 2 3 5 5 5 5 5 5 5 5 6 6 6 7 7 7 8 9 8 8 8 8 7 6
5 4 5 5 5 5 4 3 4 4 6 5 5 7 6 6 5 4 3 3 3 6 7 6 6 5 5 5 5 5 5 6 6 6 6 7 7 8 9 9 10 9 8
6 5 4 5 6 5 4 4 4 5 5 5 6 7 7 7 7 5 4 3 5 6 5 4 4 5 5 4 4 3 4 4 5 6 6 6 6 6 8 9 10 11 11
7 6 5 5 5 5 4 4 5 5 5 5 6 6 6 7 8 6 4 4 6 5 4 3 4 4 4 4 3 4 4 3 3 5 5 6 6 7 7 8 10 11 11
6 6 6 5 5 5 4 4 4 4 3 4 4 5 6 6 7 7 5 5 6 4 4 4 4 4 3 3 4 5 4 4 4 5 4 5 6 7 8 8 9 9 11
6 6 6 5 4 4 3 3 3 2 2 2 3 5 6 6 7 6 4 4 4 4 3 3 3 4 4 3 4 4 5 5 5 4 4 5 5 6 7 7 8 9 9
7 6 6 6 5 5 4 3 2 2 1 1 2 5 5 6 6 6 5 4 4 4 4 4 3 3 2 2 3 3 3 4 4 5 4 4 5 5 5 6 7 8 8
8 8 8 6 6 5 4 3 3 3 3 3 3 2 3 5 6 6 5 4 4 4 3 3 3 4 2 2 2 3 3 2 1 4 4 5 4 4 4 4 6 6 7
8 7 7 7 6 6 6 5 5 4 2 1 1 1 2 5 6 6 6 5 4 4 4 2 3 3 3 2 2 2 2 3 3 1 3 4 4 4 4 4 5 5 6
8 8 7 7 6 6 6 6 6 4 2 1 1 2 2 3 4 6 6 5 4 3 4 4 4 4 3 2 2 2 3 3 3 3 1 2 3 3 3 3 3 4 5
7 7 8 8 6 6 6 6 6 6 4 3 2 2 1 1 2 3 5 5 4 3 3 3 3 4 3 3 3 2 2 2 2 3 2 1 1 2 3 3 3 3 4
Wind_Direction
124 126 103 99 98 97 96 93 90 88 87 86 87 87 86 85 85 85 85 85 84 83 82 81 81 82 82 83 83 81 80 80 81 82 85 87 88 91 97 101 98 92 95
149 130 111 104 102 103 101 96 94 91 88 88 87 88 86 86 88 88 87 86 86 85 85 83 81 81 81 80 79 75 74 79 81 79 81 82 86 91 98 102 102 101 103
129 121 112 111 108 107 106 101 97 94 92 90 90 89 87 86 88 89 92 89 88 86 86 86 83 81 77 73 72 70 72 76 81 79 73 69 80 94 97 101 101 101 105
127 120 115 112 110 107 105 104 100 97 95 92 92 91 89 90 90 89 92 92 92 89 88 86 84 80 73 68 68 70 72 74 79 76 67 63 70 92 93 95 97 100 102
120 120 120 113 111 109 106 107 104 101 97 94 92 91 91 91 92 92 93 92 91 90 89 88 85 78 70 68 68 70 72 73 74 68 63 68 68 86 91 92 91 95 99
122 127 127 121 118 116 114 111 105 102 99 95 93 92 92 92 93 95 93 93 92 93 91 88 86 79 73 71 70 70 72 76 72 70 68 76 76 85 92 93 91 91 93
128 130 134 128 124 123 122 117 110 104 100 96 93 91 91 92 94 97 95 97 96 95 91 86 81 75 73 75 76 73 73 77 73 72 69 74 83 89 93 91 91 90 90
134 135 138 133 132 132 130 124 115 110 104 101 96 93 92 92 93 93 95 98 99 95 90 85 78 72 73 76 79 79 75 76 75 73 69 75 85 88 90 88 86 85 86
128 133 135 139 137 137 133 129 121 118 115 109 104 102 98 93 91 92 94 97 98 96 92 87 75 70 74 73 74 76 78 76 72 76 79 79 87 87 86 84 81 80 83
131 138 143 143 141 137 135 134 128 129 130 123 115 114 106 100 96 95 96 98 97 95 91 84 74 67 71 69 69 75 77 72 67 66 75 84 85 84 82 79 78 80 82
140 153 155 150 156 160 155 144 132 129 129 116 116 118 109 95 92 98 103 101 98 92 86 80 72 69 68 64 69 77 73 67 62 63 70 83 86 82 79 77 78 79 79
158 176 177 172 176 179 164 139 128 111 95 77 83 130 137 131 135 126 106 99 96 83 74 76 73 65 56 56 64 74 72 65 60 60 68 78 86 83 81 80 79 77 75
163 156 157 166 173 164 136 124 115 92 70 54 67 113 134 118 121 112 78 67 65 62 59 61 56 53 56 65 72 78 77 74 68 63 69 75 80 80 77 77 76 76 74
147 154 158 151 138 137 132 121 115 95 64 48 51 100 110 102 98 122 124 103 66 63 66 61 65 67 70 75 85 85 80 83 76 68 70 71 70 72 75 75 73 73 73
138 144 152 136 133 132 114 97 91 80 72 70 70 79 102 104 109 125 134 76 67 82 83 77 76 75 74 71 81 88 80 79 81 74 68 69 69 69 70 67 66 67 70
139 143 137 127 128 118 108 101 87 81 72 63 58 65 93 105 106 105 91 78 80 99 98 92 88 82 76 77 71 76 80 84 86 79 70 67 67 67 64 61 58 57 71
150 141 133 124 111 107 103 93 80 80 79 67 55 62 84 94 94 95 87 77 90 101 95 87 81 80 79 73 64 64 73 75 78 78 72 67 62 60 58 57 59 61 73
145 136 131 126 111 105 96 85 81 80 77 65 59 64 74 80 88 88 86 81 91 92 91 85 76 75 69 68 67 56 58 65 70 82 81 76 69 61 56 57 61 63 68
153 144 134 123 119 111 96 88 85 82 73 66 63 63 68 75 85 90 88 90 90 85 80 89 74 86 85 71 72 61 48 51 59 79 75 75 71 68 62 60 62 61 64
158 149 141 133 127 114 94 76 63 57 47 54 56 61 69 74 83 87 89 89 90 82 70 77 80 68 82 83 77 60 41 37 48 58 67 72 71 71 70 67 63 58 59
159 151 149 145 142 127 109 102 91 72 45 34 34 54 65 76 83 90 90 84 83 87 88 91 87 73 58 63 74 49 27 32 39 40 51 65 63 69 74 71 66 66 58
170 163 158 157 150 148 146 145 138 131 108 73 30 41 60 78 84 95 92 88 89 94 81 78 90 85 49 52 101 91 44 14 10 23 36 59 52 56 61 71 70 65 61
176 174 169 168 159 155 140 110 87 65 49 36 29 25 34 75 86 89 95 97 93 99 101 94 103 107 89 30 71 126 129 169 343 0 25 41 45 49 48 68 71 65 61
187 177 167 167 161 152 137 129 130 128 131 184 173 60 43 70 84 91 95 94 94 93 97 93 96 102 107 67 32 51 118 146 132 62 1 15 32 46 38 60 68 65 64
181 173 169 163 159 152 145 144 138 135 150 139 97 84 65 52 68 85 95 94 94 93 93 87 87 87 97 103 84 72 69 64 84 122 104 353 13 17 28 44 61 62 64
176 168 166 161 164 161 151 147 147 149 146 131 123 122 97 59 37 70 95 95 97 96 92 95 95 93 92 90 86 85 109 108 112 115 129 108 19 354 23 33 42 48 57
Height
1534 1533 1533 1533 1533 1532 1532 1532 1532 1531 1531 1531 1530 1530 1530 1529 1529 1529 1529 1529 1529 1529 1529 1529 1530 1530 1530 1530 1530 1530 1530 1530 1530 1530 1530 1529 1530 1530 1530 1530 1530 1530 1530
1534 1534 1534 1533 1533 1533 1533 1533 1533 1532 1532 1531 1531 1531 1530 1530 1530 1530 1530 1530 1530 1530 1530 1530 1531 1531 1531 1531 1531 1531 1531 1531 1531 1531 1530 1530 1530 1530 1530 1530 1530 1531 1531
1534 1534 1534 1534 1534 1534 1534 1533 1533 1533 1533 1532 1532 1532 1531 1531 1531 1531 1531 1531 1531 1531 1531 1531 1531 1532 1532 1532 1532 1532 1532 1532 1531 1531 1531 1530 1530 1530 1530 1531 1531 1531 1531
1534 1534 1534 1534 1534 1534 1534 1534 1534 1534 1533 1533 1533 1533 1532 1532 1532 1532 1531 1531 1531 1531 1532 1532 1532 1532 1532 1532 1532 1533 1533 1533 1532 1532 1532 1531 1530 1530 1531 1531 1531 1531 1532
1535 1535 1535 1535 1535 1535 1535 1535 1535 1535 1534 1534 1534 1534 1533 1533 1533 1533 1532 1532 1532 1532 1532 1533 1533 1533 1533 1533 1533 1533 1533 1533 1533 1533 1533 1532 1532 1532 1532 1532 1532 1532 1532
1535 1536 1536 1535 1536 1536 1536 1536 1536 1536 1535 1535 1535 1535 1534 1534 1534 1534 1533 1533 1533 1533 1533 1533 1534 1534 1534 1534 1534 1534 1534 1534 1534 1534 1534 1534 1533 1533 1533 1533 1533 1533 1533
1536 1536 1536 1536 1536 1537 1537 1537 1537 1537 1536 1536 1536 1536 1536 1535 1535 1535 1534 1534 1534 1534 1534 1534 1534 1534 1534 1535 1535 1535 1535 1535 1535 1535 1535 1534 1534 1534 1534 1534 1534 1534 1534
1537 1537 1537 1537 1538 1538 1538 1538 1538 1538 1538 1538 1538 1537 1537 1537 1536 1536 1535 1535 1535 1535 1535 1535 1535 1535 1535 1535 1536 1536 1536 1536 1535 1535 1535 1535 1535 1535 1534 1534 1534 1534 1534
1538 1538 1539 1539 1539 1539 1539 1539 1539 1539 1539 1539 1539 1539 1538 1538 1538 1537 1537 1536 1536 1536 1536 1536 1536 1536 1536 1536 1536 1536 1537 1537 1536 1536 1536 1536 1535 1535 1535 1535 1535 1535 1535
1539 1540 1540 1540 1541 1541 1541 1541 1541 1541 1541 1541 1541 1540 1540 1540 1539 1539 1538 1538 1538 1537 1537 1537 1537 1537 1537 1537 1537 1537 1537 1537 1537 1537 1536 1536 1536 1536 1536 1536 1535 1535 1535
1540 1541 1541 1542 1542 1542 1542 1542 1543 1543 1542 1542 1542 1542 1542 1541 1541 1540 1540 1540 1539 1539 1539 1539 1538 1538 1538 1538 1538 1538 1538 1538 1538 1538 1537 1537 1537 1536 1536 1536 1536 1535 1535
1541 1541 1542 1543 1543 1543 1544 1544 1544 1544 1544 1544 1543 1543 1543 1543 1542 1542 1542 1542 1541 1541 1540 1540 1540 1540 1539 1539 1540 1540 1539 1539 1539 1539 1538 1538 1538 1537 1537 1537 1536 1536 1536
1541 1542 1543 1543 1544 1544 1545 1545 1545 1545 1545 1545 1544 1544 1544 1544 1544 1544 1543 1543 1543 1542 1542 1542 1541 1541 1541 1541 1541 1541 1540 1540 1540 1540 1539 1539 1538 1538 1538 1537 1537 1536 1536
1542 1543 1544 1544 1545 1545 1546 1546 1546 1546 1546 1546 1545 1545 1545 1545 1545 1545 1545 1544 1544 1544 1543 1543 1543 1542 1542 1542 1542 1542 1541 1541 1541 1541 1540 1540 1539 1539 1538 1537 1537 1536 1536
1542 1543 1544 1545 1546 1546 1547 1547 1547 1547 1547 1547 1547 1546 1546 1546 1546 1546 1545 1545 1545 1545 1545 1544 1544 1544 1543 1543 1543 1543 1543 1542 1542 1542 1541 1541 1540 1539 1538 1538 1537 1536 1535
1542 1544 1545 1545 1546 1547 1547 1548 1548 1548 1548 1548 1548 1547 1547 1547 1547 1547 1546 1546 1546 1546 1546 1546 1545 1545 1545 1545 1545 1545 1544 1544 1543 1543 1542 1542 1541 1540 1539 1538 1536 1534 1533
1542 1544 1545 1546 1547 1547 1548 1548 1549 1549 1549 1549 1548 1548 1548 1548 1548 1548 1547 1547 1547 1547 1547 1547 1547 1546 1546 1546 1546 1546 1546 1545 1545 1544 1544 1543 1542 1541 1540 1539 1537 1534 1532
1542 1544 1545 1546 1547 1548 1548 1549 1549 1549 1549 1549 1549 1549 1549 1549 1549 1548 1548 1548 1548 1548 1548 1548 1548 1548 1547 1547 1547 1547 1547 1547 1547 1546 1545 1545 1544 1543 1542 1541 1539 1536 1535
1542 1544 1545 1546 1548 1548 1549 1549 1549 1550 1550 1550 1550 1550 1550 1549 1549 1549 1549 1549 1549 1549 1549 1549 1549 1549 1549 1549 1549 1549 1549 1549 1548 1548 1547 1546 1545 1545 1543 1542 1541 1540 1539
1542 1543 1545 1546 1547 1548 1549 1549 1550 1550 1550 1550 1550 1550 1550 1550 1550 1550 1550 1550 1550 1550 1550 1550 1550 1550 1550 1550 1550 1550 1550 1550 1550 1550 1549 1548 1547 1546 1545 1544 1543 1542 1542
1542 1543 1544 1546 1547 1548 1549 1549 1550 1550 1550 1550 1551 1551 1551 1551 1550 1551 1551 1550 1551 1551 1551 1551 1551 1551 1551 1551 1551 1551 1552 1552 1552 1551 1551 1550 1549 1548 1547 1546 1545 1544 1544
1541 1543 1544 1545 1547 1548 1549 1549 1550 1550 1551 1551 1551 1551 1551 1551 1551 1551 1551 1551 1551 1551 1551 1552 1552 1551 1551 1552 1552 1552 1553 1554 1553 1553 1552 1552 1551 1550 1549 1548 1547 1547 1546
1541 1542 1544 1545 1546 1547 1548 1549 1550 1551 1551 1551 1552 1552 1552 1552 1552 1552 1552 1552 1552 1552 1552 1552 1552 1552 1552 1553 1553 1553 1553 1554 1554 1555 1554 1553 1553 1552 1551 1550 1549 1549 1548
1540 1542 1543 1545 1546 1547 1548 1549 1550 1551 1551 1552 1552 1552 1552 1553 1553 1553 1553 1553 1553 1553 1553 1553 1553 1553 1553 1553 1553 1553 1554 1554 1554 1555 1556 1555 1554 1553 1552 1552 1551 1551 1550
1539 1541 1543 1544 1546 1547 1548 1549 1550 1551 1551 1552 1552 1552 1553 1553 1553 1553 1553 1553 1553 1553 1553 1553 1553 1553 1553 1553 1553 1554 1554 1554 1554 1555 1555 1556 1556 1555 1554 1554 1553 1552 1552
1538 1540 1542 1544 1545 1547 1548 1549 1550 1551 1551 1552 1552 1553 1553 1553 1554 1554 1554 1554 1554 1554 1554 1554 1554 1554 1554 1554 1554 1554 1554 1554 1555 1555 1555 1556 1556 1556 1556 1555 1554 1554 1553